Regional Weather Roundup
Issued by NWS

Home | Current Version | Previous Version | Graphics & Text | Print | Product List | Glossary On
Versions: 1 2 3 4 5 6 7 8 9 10 11 12 13 14 15 16 17 18 19 20 21 22 23 24 25 26 27 28 29 30 31 32 33 34 35 36 37 38 39 40 41 42 43 44 45 46 47 48 49 50
000
ASUS43 KMPX 281110
RWRMN
WEATHER ROUNDUP FOR MINNESOTA
NATIONAL WEATHER SERVICE TWIN CITIES/CHANHASSEN MN
600 AM CDT WED SEP 28 2016


NOTE: "FAIR" INDICATES FEW OR NO CLOUDS BELOW 12,000 FEET WITH NO
SIGNIFICANT WEATHER AND/OR OBSTRUCTIONS TO VISIBILITY. N/A MEANS
CURRENT SKY AND/OR WEATHER CONDITIONS ARE NOT AVAILABLE.

MNZ060>063-068>070-281200-
   Twin Cities Metro

CITY           SKY/WX    TMP DP  RH WIND       PRES   REMARKS
TWIN CITIES    CLOUDY    51  46  83 NW9       30.02R
ST PAUL        CLOUDY    51  47  86 NW9       30.02R
CRYSTAL        CLOUDY    49  44  83 NW8       30.02R
BLAINE         CLOUDY    50  48  93 NW9       30.02R
LAKEVILLE      CLOUDY    48  48 100 N8        30.01R
EDEN PRAIRIE   MOCLDY    51  46  83 N10       30.01R
LAKEVILLE      CLOUDY    48  48 100 N8        30.01R
SOUTH ST PAUL  CLOUDY    51  46  83 N8        30.00R
LAKE ELMO      CLOUDY    50  48  93 NW8       30.01R
$$
MNZ001>005-007-008-013>017-022>024-027-028-281200-
   Northwest Minnesota

CITY           SKY/WX    TMP DP  RH WIND       PRES   REMARKS
BEMIDJI        PTCLDY    46  45  97 N7        30.13R
HALLOCK        CLOUDY    39  37  93 CALM      30.18R
ROSEAU         CLOUDY    46  43  87 N5        30.17R
WARROAD        CLOUDY    46  45  93 N8        30.17R
THIEF RVR FALL   N/A     45  43  93 N3        30.18R
CROOKSTON      CLOUDY    39  39 100 N3        30.18R
FOSSTON        CLOUDY    43  41  93 NW6       30.16R
DETROIT LAKES  CLOUDY    46  45  93 NE7       30.15R
MOORHEAD       CLOUDY    39  39 100 N7        30.17R
PARK RAPIDS    CLOUDY    48  44  86 NW8       30.12R
MAHNOMEN       CLOUDY    44  43  97 N6        30.15R FOG
$$
MNZ006-009>011-018-025>026-281200-
   North Central Minnesota

CITY           SKY/WX    TMP DP  RH WIND       PRES   REMARKS
BAUDETTE       CLEAR     47  45  93 NE6       30.15R
FLAG ISLAND    CLOUDY    50  46  87 NW6       30.16R
INTL FALLS     MOCLDY    50  47  89 NE5       30.13R
WASKISH        CLOUDY    46  45  93 CALM      30.14R
BIG FORK       CLOUDY    48  46  93 CALM      30.12R
LONGVILLE      CLOUDY    48  46  93 NE3       30.10R
GRAND RAPIDS   CLOUDY    48  47  96 N8        30.11R
CRANE LAKE     CLOUDY    48  48 100 N3        30.13R
ORR            CLOUDY    50  46  87 CALM      30.09R
COOK           CLOUDY    48  46  93 N5        30.11R
WALKER         CLOUDY    45  45  99 N6        30.12R
$$
MNZ012-019>021-037-281200-
   Northeast Minnesota

CITY           SKY/WX    TMP DP  RH WIND       PRES   REMARKS
DULUTH         PTCLDY    50  47  89 N10       30.03R
ELY            CLOUDY    48  46  93 CALM      30.08R
HIBBING        CLOUDY    48  47  96 N10       30.08R
EVELETH        CLEAR     50  48  93 N5        30.08R
DULUTH HARBOR  CLOUDY    55  50  82 N15       30.03R
TWO HARBORS    CLEAR     54  48  82 N5        30.01R
SILVER BAY     CLEAR     50  46  87 N5        30.02R
GRAND MARAIS     N/A     54  47  77 NE8       30.03R
G MARAIS ARPRT CLEAR     46  43  87 N14G22    30.04R
$$
MNZ029>031-032-039>041-046>048-054>057-064-281200-
   West Central Minnesota

CITY           SKY/WX    TMP DP  RH WIND       PRES   REMARKS
FERGUS FALLS   CLOUDY    45  45 100 CALM      30.15R
MORRIS         CLOUDY    46  43  87 N5        30.12R
ALEXANDRIA     CLOUDY    46  45  96 NE9       30.12R
ELBOW LAKE     CLOUDY    47  45  93 NE5       30.13R
GLENWOOD       CLOUDY    46  45  93 N7        30.11R
BENSON         CLOUDY    46  43  87 NE5       30.11R
ORTONVILLE     CLOUDY    45  39  81 CALM      30.13R
MADISON        CLOUDY    46  45  93 N7        30.12R
WILLMAR        CLOUDY    48  46  93 N5        30.11R
$$
MNZ033>034-036-042>043-049>051-058-059-281200-
   Central Minnesota

CITY           SKY/WX    TMP DP  RH WIND       PRES   REMARKS
ST CLOUD       CLEAR     48  47  96 N7        30.06R
SAUK CENTRE    CLOUDY    47  45  90 N6        30.10R
PAYNESVILLE    CLOUDY    49  49  99 N9        30.09R
AITKIN         MOCLDY    52  45  76 N7        30.07R
PINE RIVER     PTCLDY    48  46  93 N5        30.13R
BRAINERD       MOCLDY    48  46  93 N6        30.09R
STAPLES        CLOUDY    46  46 100 NW6       30.11R
LONG PRAIRIE   CLOUDY    46  45  93 NW5       30.10R
LITTLE FALLS   CLOUDY    50  45  81 N5        30.09R
LITCHFIELD     CLOUDY    52  46  82 N9G17     30.08R
BUFFALO        CLEAR     48  45  89 N6        30.05R
MAPLE LAKE     CLEAR     49  47  94 NW7       30.06R
HUTCHINSON     CLOUDY    51  47  87 N12G17    30.07R
$$
MNZ037-044-045-052-053-281200-
   East Central Minnesota

CITY           SKY/WX    TMP DP  RH WIND       PRES   REMARKS
PRINCETON        N/A     48  46  93 NW6       30.05R
MORA           CLOUDY    50  46  87 N7        30.06R
CAMBRIDGE      CLOUDY    54  45  71 NW9G16    30.02R
MOOSE LAKE     CLOUDY    48  45  87 N7        30.03R
HINCKLEY       CLOUDY    50  48  93 N8        30.03R
CLOQUET        MOCLDY    46  45  93 N8        30.04R
MCGREGOR       PTCLDY    48  46  93 NW9       30.07R
$$
MNZ071>073-080-081-089-090-097-098-281200-
   Southwest Minnesota

CITY           SKY/WX    TMP DP  RH WIND       PRES   REMARKS
MONTEVIDEO     CLOUDY    46  45  93 N5        30.13R
GRANITE FALLS  CLOUDY    47  44  88 NW7       30.12R
CANBY          CLOUDY    42  40  95 W3        30.13R
MARSHALL       CLOUDY    45  42  89 N6        30.11R
REDWOOD FALLS  CLOUDY    48  43  82 N5        30.09R
OLIVIA         CLOUDY    50  46  87 N7        30.08R
PIPESTONE      CLEAR     45  41  87 NE5       30.09R
WINDOM         CLOUDY    46  43  87 N10       30.07R
WORTHINGTON    CLOUDY    45  42  89 N16       30.08R
JACKSON        CLOUDY    46  41  81 N9        30.07R
TRACY          CLOUDY    47  44  90 N8        30.10R
$$
MNZ065>067-074>077-082>085-091>093-281200-
   South Central Minnesota

CITY           SKY/WX    TMP DP  RH WIND       PRES   REMARKS
MANKATO        CLOUDY    50  46  86 NW9       30.04R
NEW ULM        CLOUDY    46  46 100 NW7       30.06R
ST JAMES       CLOUDY    48  45  87 NW6       30.07R
FAIRMONT       CLOUDY    48  44  86 N10       30.05R
GLENCOE        PTCLDY    46  46  99 NW6       30.05R
FARIBAULT      CLOUDY    50  46  87 NW8       30.02R
OWATONNA       CLOUDY    50  45  81 NW8       30.01R
WASECA         CLOUDY    50  45  81 NW7       30.03R
ALBERT LEA     CLOUDY    50  46  87 N7        30.00R
$$
MNZ078>079-086>088-094>096-281200-
   Southeast Minnesota

CITY           SKY/WX    TMP DP  RH WIND       PRES   REMARKS
ROCHESTER      CLOUDY    49  47  93 N10       29.97R
RED WING       CLOUDY    52  48  87 NW5       29.97R
DODGE CENTER   CLOUDY    48  46  93 N9        29.98R
WINONA         CLOUDY    52  46  82 NW10      29.94R
AUSTIN         CLOUDY    48  45  87 NW9       29.98R
PRESTON        CLOUDY    47  45  90 N12G17    29.95R
$$
ABBREVIATIONS USED IN REMARKS
   TC - TEMPERATURES IN CELSIUS
  WCI - WIND CHILL INDEX
   HX - HEAT INDEX
  VSB - VISIBILITY
$$




USA.gov is the U.S. government's official web portal to all federal, state and local government web resources and services.